Regional Weather Roundup
Issued by NWS San Angelo, TX

Home | Current Version | Previous Version | Text Only | Print | Product List | Glossary On
Versions: 1 2 3 4 5 6 7 8 9 10 11 12 13 14 15 16 17 18 19 20 21 22 23 24 25 26 27 28 29 30 31 32 33 34 35 36 37 38 39 40 41 42 43 44 45 46 47 48 49 50
000
ASUS44 KSJT 221910
RWRSJT
WEST CENTRAL TEXAS REGIONAL WEATHER ROUNDUP
NATIONAL WEATHER SERVICE SAN ANGELO TX
100 PM CST WED NOV 22 2017

NOTE: "FAIR" INDICATES FEW OR NO CLOUDS BELOW 12,000 FEET WITH NO
SIGNIFICANT WEATHER AND/OR OBSTRUCTIONS TO VISIBILITY.

TXZ049-054-064>066-071>073-076>078-098-099-113-114-127-128-139-140-
154-155-168>170-222000
...LOCATIONS ACROSS WEST CENTRAL TEXAS...

CITY           SKY/WX    TMP DP  RH WIND       PRES   REMARKS
SAN ANGELO     SUNNY     56  15  20 N5        30.36F
ABILENE        SUNNY     53  15  22 NW10      30.37F
DYESS AFB      SUNNY     52  20  28 NW10      30.36F
JUNCTION       SUNNY     59  16  18 NW12      30.33F
SWEETWATER     SUNNY     54  20  27 NW5       30.38F
BROWNWOOD      SUNNY     55  14  19 NW8       30.34F
COLEMAN        CLEAR     56  17  22 N7G16     30.35F
SONORA         SUNNY     57  18  21 N10       30.39F
OZONA          FAIR      59  21  23 CALM      30.39F
BRADY          NOT AVBL
$$

TEXAS PANHANDLE/OKLAHOMA PANHANDLE

CITY           SKY/WX    TMP DP  RH WIND       PRES   REMARKS
AMARILLO       CLOUDY    57  28  33 SW13G21   30.29F
BORGER         SUNNY     60  28  29 SW15G22   30.27F
CANADIAN       SUNNY     58  28  32 SW12G17   30.27F
DALHART        CLOUDY    61  30  31 SW13      30.26F
DUMAS          CLOUDY    55  27  34 SW17G24   30.27F
GUYMON         NOT AVBL
HEREFORD       CLOUDY    56  29  36 MISG      30.31F
PAMPA          CLOUDY    59  29  31 SW13G20   30.28F
PERRYTON       CLOUDY    57  30  35 SW16      30.25F
$$

SOUTHERN PANHANDLE/SOUTH PLAINS/ROLLING PLAINS

CITY           SKY/WX    TMP DP  RH WIND       PRES   REMARKS
LUBBOCK        CLOUDY    54  25  32 SW13      30.33F
SNYDER         SUNNY     51  20  29 NW5       30.38F
CHILDRESS      SUNNY     51  19  28 SW6       30.36F
SEMINOLE       CLEAR     55  27  33 SW7       30.37F
$$

PERMIAN BASIN

CITY           SKY/WX    TMP DP  RH WIND       PRES   REMARKS
MIDLAND        SUNNY     55  21  26 VRB3      30.37F
ODESSA         CLOUDY    54  22  28 SW7       30.38F
WINK           SUNNY     56  26  31 MISG      30.36F
$$

FAR WEST/SOUTHWEST MOUNTAINS/TRANS PECOS

CITY           SKY/WX    TMP DP  RH WIND       PRES   REMARKS
ALPINE         CLEAR     58  24  26 E3        30.42F
DRYDEN           N/A     60  29  30 VRB3      30.36F
EL PASO        MOSUNNY   62  25  24 CALM      30.35F
FORT STOCKTON  SUNNY     54  29  38 E5        30.38F
GUADALUPE PASS SUNNY     56  25  30 SW15G23   30.38F
MARFA          SUNNY     58  23  26 E5        30.38F
PECOS          CLEAR     56  26  31 SE8       30.38F
$$

DALLAS/FORT WORTH METROPLEX

CITY           SKY/WX    TMP DP  RH WIND       PRES   REMARKS
DFW AIRPORT    PTSUNNY   53  18  25 NW10      30.32F
FTW MEACHAM    MOSUNNY   53  21  28 NW12      30.34F
DAL-EXECUTIVE  MOSUNNY   52  24  33 N14       30.32F
GRAND PRAIRIE  SUNNY     52  19  28 N9        30.35F
ADDISON        SUNNY     50  21  32 NW9G16    30.34F
MESQUITE       CLEAR     52  25  35 NW9       30.33F
LANCASTER      PTCLDY    52  25  34 N9        30.33F
$$

NORTH CENTRAL TEXAS

CITY           SKY/WX    TMP DP  RH WIND       PRES   REMARKS
SHRMAN/DENISON CLEAR     51  21  30 N12       30.35F
GAINESVILLE    MOSUNNY   49  18  29 NW8       30.37F
BRIDGEPORT     CLEAR     49  21  32 NW6       30.38F
DENTON         MOSUNNY   50  20  30 NW9       30.34F
WAXAHACHIE     PTCLDY    53  27  37 NW10      30.34F
GRANBURY       PTCLDY    53  20  26 N13       30.35F
$$

WESTERN NORTH TEXAS

CITY           SKY/WX    TMP DP  RH WIND       PRES   REMARKS
WICHITA FALLS  SUNNY     48  17  29 N9        30.37F
VERNON         CLEAR     51   4  15 NW6       30.38F
BRECKENRIDGE   PTCLDY    53  17  24 NW7       30.36F HAZE
COMANCHE       SUNNY     54  19  25 N8G17     30.34F
$$

CENTRAL AND SOUTH CENTRAL TEXAS

CITY           SKY/WX    TMP DP  RH WIND       PRES   REMARKS
AUSTIN/BERGSTM MOSUNNY   63  35  35 N13       30.26F
WACO           SUNNY     57  23  26 NW14      30.31F
HILLSBORO      CLEAR     55  23  28 N9G17     30.31F
TEMPLE         SUNNY     58  25  28 N10       30.30F
KILLEEN-GRAY   SUNNY     58  20  23 NW13      30.28F
FORT HOOD      SUNNY     58  23  26 NW8       30.26F
GEORGETOWN     SUNNY     61  31  32 NW15      30.30F
LAGO VISTA     FAIR      61  32  33 N7G17     30.28F
SAN MARCOS     SUNNY     65  37  35 N17       30.27F
NEW BRAUNFELS  SUNNY     65  36  34 N17       30.26F
RANDOLPH AFB   SUNNY     64  35  34 NW14      30.26F
SAN ANTONIO    PTSUNNY   66  34  30 NW12G23   30.28F
STINSON        SUNNY     67  37  33 N12G17    30.26F
PLEASANTON     NOT AVBL
LA GRANGE      SUNNY     63  39  41 N9        30.23F
GIDDINGS       CLEAR     59  34  38 N12G17    30.27F
$$

EAST TEXAS

CITY           SKY/WX    TMP DP  RH WIND       PRES   REMARKS
PARIS          SUNNY     50  27  40 NW9       30.32F
CLARKSVILLE    NOT AVBL
TYLER          SUNNY     58  30  34 N10       30.27F
LONGVIEW       SUNNY     59  36  42 N3        30.25F
PALESTINE      CLEAR     59  34  38 W10G16    30.28F
NACOGDOCHES    SUNNY     61  41  47 N6        30.24F
$$

TEXAS HILL COUNTRY AND EDWARDS PLATEAU

CITY           SKY/WX    TMP DP  RH WIND       PRES   REMARKS
LLANO          CLEAR     61  18  18 N12       30.34F
HORSESHOE BAY  FAIR      60  28  29 N10       30.31F
KERRVILLE      SUNNY     59  29  31 NW15      30.30F
FREDERICKSBRG  SUNNY     57  24  28 N10G16    30.31F
ROCKSPRINGS    NOT AVBL
HONDO          SUNNY     69  32  25 N10       30.29F
UVALDE         CLEAR     64  35  34 W5        30.31F
DEL RIO        SUNNY     64  33  31 N14G20    30.34F
$$

SOUTHEAST TEXAS

CITY           SKY/WX    TMP DP  RH WIND       PRES   REMARKS
COLLEGE STN    SUNNY     61  36  39 NW12G20   30.25F
CALDWELL       CLEAR     60  35  39 N8        30.27F
CROCKETT         N/A     61  39  44 N7        30.27F
BRENHAM        SUNNY     62  38  40 N13G22    30.25F
HUNTSVILLE     SUNNY     63  43  48 N7        30.23F
CONROE         SUNNY     66  46  48 N9        30.21F
HOUSTON BUSH   MOSUNNY   68  49  50 N12       30.19F
HOUSTON HOBBY  MOSUNNY   67  50  54 N12       30.17F
PERLAND        SUNNY     70  51  51 N6G17     30.18F
WHARTON        CLEAR     66  43  42 N10G18    30.21F
$$

THE UPPER TEXAS COAST

CITY           SKY/WX    TMP DP  RH WIND       PRES   REMARKS
ORANGE         CLEAR     65  49  55 NE9       30.17F
PORT ARTHUR    SUNNY     66  48  52 N14       30.15F
GALVESTON      SUNNY     67  54  63 N16       30.17F
ANGLETON       MOSUNNY   70  51  51 N14       30.17F
BAY CITY       PTCLDY    70  52  53 N14G20    30.18F
$$

TEXAS COASTAL BEND, RIO GRANDE PLAINS DEEP SOUTH TEXAS

CITY           SKY/WX    TMP DP  RH WIND       PRES   REMARKS
VICTORIA       SUNNY     69  44  40 N9G18     30.22F
BEEVILLE       FAIR      67  44  43 N9        30.25F
ROCKPORT       SUNNY     70  50  49 N13       30.21F
PORT ARANSAS   NOT AVBL
PORT LAVACA    CLEAR     68  49  49 N10G17    30.21F
CORPUS CHRISTI PTSUNNY   68  47  46 N14       30.22F
KINGSVILLE NAS PTSUNNY   70  48  45 N14G21    30.23F
COTULLA        SUNNY     68  41  37 N9        30.28F
LAREDO         SUNNY     67  43  41 NW12      30.29F
BROWNSVILLE    PTSUNNY   72  56  57 N20G30    30.19F
PORT ISABEL    CLOUDY    66  54  65 N22G29    30.19F
HEBBRONVILLE   CLOUDY    63  42  45 N15       30.28F HAZE
MCALLEN        CLOUDY    68  51  54 N17       30.25F
WESLACO        CLOUDY    66  50  55 N14G24    30.23F
FALFURRIAS     MOCLDY    69  45  42 N14G20    30.24F
EDINBURG       MOCLDY    68  48  48 NW15      30.25F
$$




USA.gov is the U.S. government's official web portal to all federal, state and local government web resources and services.